| time (UTC) | temp F | wind direction | speed knots | gust knots | rain 1hr in | rain 24hr in | rain mn in | humidity % | barometer mb |
| 20260507023110 | 60 | 65 | 0.9 | 3.5 | 0.00 | 0.00 | 0.00 | 65 | 1014.6 |
| 20260507021519 | 60 | 89 | 0.9 | 6.1 | 0.00 | 0.00 | 0.00 | 63 | 1014.3 |
| 20260507020015 | 61 | 96 | 1.7 | 4.3 | 0.00 | 0.00 | 0.00 | 61 | 1014.0 |
| 20260507014513 | 62 | 81 | 0.9 | 2.6 | 0.00 | 0.00 | 0.00 | 58 | 1013.7 |
| 20260507013115 | 63 | 66 | 0.9 | 4.3 | 0.00 | 0.00 | 0.00 | 56 | 1013.5 |
| 20260507011505 | 64 | 56 | 1.7 | 5.2 | 0.00 | 0.00 | 0.00 | 55 | 1013.3 |
| 20260507010023 | 65 | 65 | 0.9 | 5.2 | 0.00 | 0.00 | 0.00 | 54 | 1013.1 |
| 20260507004520 | 66 | 82 | 1.7 | 7.0 | 0.00 | 0.00 | 0.00 | 51 | 1013.0 |
| 20260507003005 | 67 | 67 | 3.5 | 7.8 | 0.00 | 0.00 | 0.00 | 50 | 1012.9 |
| 20260507001505 | 67 | 71 | 3.5 | 8.7 | 0.00 | 0.00 | 0.00 | 50 | 1012.8 |
| 20260507000017 | 68 | 79 | 0.0 | 7.8 | 0.00 | 0.00 | 0.00 | 49 | 1012.8 |
| 20260506234522 | 68 | 15 | 2.6 | 7.0 | 0.00 | 0.00 | 0.00 | 49 | 1012.7 |
| 20260506233105 | 68 | 83 | 0.9 | 7.8 | 0.00 | 0.00 | 0.00 | 49 | 1012.4 |
| 20260506231514 | 69 | 72 | 1.7 | 5.2 | 0.00 | 0.00 | 0.00 | 48 | 1012.3 |
| 20260506230020 | 69 | 50 | 2.6 | 8.7 | 0.00 | 0.00 | 0.00 | 48 | 1012.2 |
| 20260506224509 | 69 | 96 | 3.5 | 7.8 | 0.00 | 0.00 | 0.00 | 49 | 1012.0 |
| 20260506223111 | 69 | 353 | 0.9 | 7.0 | 0.00 | 0.00 | 0.00 | 48 | 1012.1 |
| 20260506221518 | 69 | 69 | 0.9 | 7.8 | 0.00 | 0.00 | 0.00 | 50 | 1012.0 |
| 20260506220031 | 68 | 86 | 3.5 | 9.6 | 0.00 | 0.00 | 0.00 | 49 | 1012.0 |
| 20260506214506 | 68 | 55 | 4.3 | 8.7 | 0.00 | 0.00 | 0.00 | 49 | 1012.1 |
| 20260506213104 | 68 | 79 | 3.5 | 8.7 | 0.00 | 0.00 | 0.00 | 50 | 1012.3 |
| 20260506211511 | 69 | 72 | 0.9 | 7.8 | 0.00 | 0.00 | 0.00 | 49 | 1012.4 |
| 20260506210022 | 68 | 70 | 3.5 | 8.7 | 0.00 | 0.00 | 0.00 | 49 | 1012.5 |
| 20260506204521 | 67 | 61 | 6.1 | 10.4 | 0.00 | 0.00 | 0.00 | 49 | 1012.7 |
| 20260506203102 | 68 | 354 | 3.5 | 7.0 | 0.00 | 0.00 | 0.00 | 50 | 1012.8 |
| 20260506201509 | 67 | 118 | 1.7 | 7.8 | 0.00 | 0.00 | 0.00 | 51 | 1012.8 |
| 20260506200022 | 66 | 72 | 3.5 | 9.6 | 0.00 | 0.00 | 0.00 | 53 | 1013.1 |
| 20260506194519 | 66 | 70 | 2.6 | 12.2 | 0.00 | 0.00 | 0.00 | 55 | 1013.0 |
| 20260506193104 | 65 | 55 | 3.5 | 8.7 | 0.00 | 0.00 | 0.00 | 55 | 1013.0 |
| 20260506191510 | 64 | 356 | 1.7 | 9.6 | 0.00 | 0.00 | 0.00 | 57 | 1013.1 |
| 20260506190026 | 63 | 70 | 2.6 | 7.0 | 0.00 | 0.00 | 0.00 | 57 | 1013.1 |
| 20260506184504 | 61 | 75 | 2.6 | 8.7 | 0.00 | 0.00 | 0.00 | 59 | 1013.3 |
| 20260506183127 | 61 | 96 | 4.3 | 8.7 | 0.00 | 0.00 | 0.00 | 59 | 1013.3 |
| 20260506181523 | 60 | 73 | 1.7 | 8.7 | 0.00 | 0.00 | 0.00 | 61 | 1013.3 |
| 20260506180011 | 59 | 94 | 3.5 | 8.7 | 0.00 | 0.00 | 0.00 | 61 | 1013.4 |
| 20260506174514 | 59 | 135 | 3.5 | 8.7 | 0.00 | 0.00 | 0.00 | 61 | 1013.3 |
| 20260506173140 | 58 | 70 | 3.5 | 10.4 | 0.00 | 0.00 | 0.00 | 62 | 1013.8 |
| 20260506171523 | 58 | 27 | 2.6 | 8.7 | 0.00 | 0.00 | 0.00 | 61 | 1013.8 |
| 20260506170008 | 56 | 60 | 4.3 | 10.4 | 0.00 | 0.00 | 0.00 | 63 | 1014.0 |
| 20260506164514 | 56 | 52 | 3.5 | 8.7 | 0.00 | 0.00 | 0.00 | 63 | 1014.2 |
| 20260506163117 | 56 | 72 | 2.6 | 8.7 | 0.00 | 0.00 | 0.00 | 63 | 1014.3 |
| 20260506161507 | 55 | 40 | 2.6 | 9.6 | 0.00 | 0.00 | 0.00 | 65 | 1014.7 |
| 20260506160014 | 54 | 89 | 3.5 | 12.2 | 0.00 | 0.00 | 0.00 | 64 | 1014.7 |
| 20260506154519 | 54 | 57 | 3.5 | 8.7 | 0.00 | 0.00 | 0.00 | 64 | 1014.9 |
| 20260506153116 | 54 | 92 | 1.7 | 9.6 | 0.00 | 0.00 | 0.00 | 64 | 1014.5 |
| 20260506151507 | 53 | 73 | 4.3 | 9.6 | 0.00 | 0.00 | 0.00 | 64 | 1014.6 |
| 20260506150013 | 53 | 27 | 2.6 | 9.6 | 0.00 | 0.00 | 0.00 | 64 | 1014.6 |
| 20260506144520 | 54 | 102 | 4.3 | 9.6 | 0.00 | 0.00 | 0.00 | 64 | 1014.3 |
| 20260506143005 | 53 | 87 | 2.6 | 10.4 | 0.00 | 0.00 | 0.00 | 65 | 1014.1 |
| 20260506141505 | 53 | 82 | 3.5 | 8.7 | 0.00 | 0.00 | 0.00 | 67 | 1013.6 |
| 20260506140020 | 52 | 6 | 3.5 | 9.6 | 0.00 | 0.00 | 0.00 | 68 | 1013.4 |
| 20260506134517 | 51 | 41 | 2.6 | 9.6 | 0.00 | 0.00 | 0.00 | 69 | 1013.4 |
| 20260506133115 | 51 | 65 | 2.6 | 8.7 | 0.00 | 0.00 | 0.00 | 70 | 1013.1 |
| 20260506131507 | 51 | 68 | 1.7 | 6.1 | 0.00 | 0.00 | 0.00 | 70 | 1012.9 |
| 20260506130018 | 51 | 75 | 2.6 | 6.1 | 0.00 | 0.00 | 0.00 | 70 | 1012.5 |
| 20260506124516 | 50 | 41 | 2.6 | 7.8 | 0.00 | 0.00 | 0.00 | 70 | 1012.1 |
| 20260506123005 | 51 | 46 | 1.7 | 7.0 | 0.00 | 0.00 | 0.00 | 70 | 1012.2 |
| 20260506121507 | 51 | 90 | 1.7 | 7.8 | 0.00 | 0.00 | 0.00 | 69 | 1012.1 |
| 20260506120026 | 51 | 47 | 0.0 | 6.1 | 0.00 | 0.00 | 0.00 | 70 | 1011.9 |
| 20260506114518 | 51 | 81 | 1.7 | 11.3 | 0.00 | 0.00 | 0.00 | 69 | 1011.7 |
| 20260506113008 | 51 | 96 | 1.7 | 7.0 | 0.00 | 0.00 | 0.00 | 69 | 1011.5 |
| 20260506111509 | 51 | 34 | 3.5 | 7.8 | 0.00 | 0.00 | 0.00 | 70 | 1011.3 |
| 20260506110020 | 51 | 304 | 1.7 | 5.2 | 0.00 | 0.00 | 0.00 | 71 | 1011.5 |
| 20260506104518 | 51 | 108 | 1.7 | 10.4 | 0.00 | 0.00 | 0.00 | 73 | 1011.5 |
| 20260506103102 | 50 | 359 | 0.0 | 7.8 | 0.00 | 0.00 | 0.00 | 74 | 1011.4 |
| 20260506101506 | 50 | 25 | 1.7 | 7.8 | 0.00 | 0.00 | 0.00 | 75 | 1011.0 |
| 20260506100016 | 50 | 82 | 0.9 | 8.7 | 0.00 | 0.00 | 0.00 | 77 | 1010.8 |
| 20260506094522 | 50 | 63 | 0.9 | 5.2 | 0.00 | 0.00 | 0.00 | 79 | 1010.7 |
| 20260506093106 | 50 | 122 | 1.7 | 9.6 | 0.00 | 0.00 | 0.00 | 80 | 1010.6 |
| 20260506091517 | 50 | 265 | 0.0 | 6.1 | 0.00 | 0.00 | 0.00 | 80 | 1010.7 |
| 20260506090023 | 50 | 47 | 1.7 | 7.8 | 0.00 | 0.00 | 0.00 | 81 | 1010.8 |
| 20260506084522 | 51 | 56 | 1.7 | 4.3 | 0.00 | 0.00 | 0.00 | 81 | 1010.7 |
| 20260506083107 | 51 | 34 | 0.0 | 4.3 | 0.00 | 0.00 | 0.00 | 81 | 1010.3 |
| 20260506081518 | 51 | 90 | 1.7 | 5.2 | 0.00 | 0.00 | 0.00 | 80 | 1010.0 |
| 20260506073120 | 51 | 15 | 1.7 | 9.6 | 0.00 | 0.00 | 0.00 | 79 | 1009.4 |
| 20260506071519 | 51 | 68 | 2.6 | 8.7 | 0.00 | 0.00 | 0.00 | 78 | 1009.7 |
| 20260506061506 | 51 | 96 | 2.6 | 6.1 | 0.00 | 0.00 | 0.00 | 79 | 1008.9 |
| 20260506044505 | 51 | 65 | 2.6 | 5.2 | 0.00 | 0.00 | 0.00 | 78 | 1008.6 |
| 20260506043113 | 52 | 70 | 1.7 | 5.2 | 0.00 | 0.00 | 0.00 | 77 | 1008.6 |
| 20260506041517 | 52 | 4 | 1.7 | 6.1 | 0.00 | 0.00 | 0.00 | 76 | 1008.5 |
| 20260506040032 | 52 | 100 | 3.5 | 10.4 | 0.00 | 0.00 | 0.00 | 75 | 1008.2 |
| 20260506034518 | 53 | 23 | 1.7 | 9.6 | 0.00 | 0.00 | 0.00 | 75 | 1008.1 |
| 20260506033006 | 53 | 59 | 2.6 | 6.1 | 0.00 | 0.00 | 0.00 | 74 | 1007.9 |
| 20260506031509 | 54 | 71 | 3.5 | 8.7 | 0.00 | 0.00 | 0.00 | 73 | 1008.1 |
| 20260506030015 | 54 | 59 | 2.6 | 10.4 | 0.00 | 0.00 | 0.00 | 74 | 1008.0 |
| 20260506024523 | 55 | 84 | 1.7 | 8.7 | 0.00 | 0.00 | 0.00 | 73 | 1007.6 |